Terminal Aerodrome Forecast
Issued by NWS Twin Cities, MN

Home | Current Version | Previous Version | Graphics & Text | Print | Product List | Glossary On
Versions: 1 2 3 4 5 6 7 8 9 10 11 12 13 14 15 16 17 18 19 20 21 22 23 24 25 26 27 28 29
122
FTUS43 KMPX 251914 AAA
TAFMSP
TAF AMD
KMSP 251914Z 2519/2624 09010KT 6SM -SHRA BKN015 BKN070
     FM252000 12012KT P6SM VCSH SCT015 BKN040 OVC100
     FM252200 14009KT P6SM SCT050 BKN250
     FM260900 19004KT 5SM BR SCT250
     FM261300 23008KT P6SM SCT250=

USA.gov is the U.S. government's official web portal to all federal, state and local government web resources and services.